Regional Weather Roundup
Issued by NWS Portland, ME

Home | Current Version | Previous Version | Text Only | Print | Product List | Glossary On
Versions: 1 2 3 4 5 6 7 8 9 10 11 12 13 14 15 16 17 18 19 20 21 22 23 24 25 26 27 28 29 30 31 32 33 34 35 36 37 38 39 40 41 42 43 44 45 46 47 48 49 50
000
ASUS41 KGYX 211310
RWRGYX
WEATHER ROUNDUP FOR MAINE AND NEW HAMPSHIRE
NATIONAL WEATHER SERVICE GRAY ME
900 AM EDT MON MAY 21 2018

MEZ002-005-006-010-012-015-018-020-021-024-026-027-029-211400-
MAINE

CITY           SKY/WX    TMP DP  RH WIND       PRES   REMARKS
PORTLAND       FAIR      64  47  53 W6        30.14S
SANFORD        FAIR      65  40  39 NW5       30.15S
BAR HARBOR     FAIR      62  39  42 W8        30.08S
WISCASSET      FAIR      62  42  47 W7        30.13S
ROCKLAND       FAIR      62  43  49 W10       30.10S
FRYEBURG       FAIR      65  35  33 S7        30.14S
LEWISTONAUBURN FAIR      63  39  41 W7        30.13S
AUGUSTA        FAIR      62  40  44 W7        30.11S
WATERVILLE     FAIR      63  40  42 VRB7      30.08S
BANGOR         FAIR      63  38  39 W7        30.07S
GREENVILLE       N/A     60  34  37 NW10G18   30.03F
MILLINOCKET    FAIR      61  34  36 W5        30.03F
HOULTON        FAIR      62  33  33 W13G25    29.96F
PRESQUE ISLE   FAIR      59  33  37 W13       29.95F
FRENCHVILLE    FAIR      60  33  36 W13G20    29.90F
CARIBOU        FAIR      59  32  36 W9G20     29.93F
$$

NHZ002-005-008-009-011-012-014-211400-
NEW HAMPSHIRE

CITY           SKY/WX    TMP DP  RH WIND       PRES   REMARKS
ROCHESTER      FAIR      64  44  48 NW8       30.14S
NASHUA         FAIR      63  44  50 VRB6      30.18R
MANCHESTER     FAIR      67  43  41 VRB6      30.15S
CONCORD        FAIR      62  44  51 NW8       30.17R
LACONIA        FAIR      63  40  42 W5        30.16S
BERLIN         FAIR      60  36  40 NW8       30.14S
WHITEFIELD     FAIR      59  41  51 VRB5      30.16S
JAFFREY        FAIR      61  42  49 VRB5      30.19R
KEENE          FAIR      61  50  67 CALM      30.20R
LEBANON        FAIR      51  47  86 CALM      30.18F
MT WASHINGTON  SUNNY     34  25  69 N24G47      N/A
$$

VTZ005-007-008-211400-
VERMONT

CITY           SKY/WX    TMP DP  RH WIND       PRES   REMARKS
ST JOHNSBURY     N/A     52  46  80 MISG      30.15S
MONTPELIER     FAIR      60  43  53 N6        30.21R
BURLINGTON     FAIR      63  43  48 S5        30.18R
$$

MAZ007-012-024-CTZ003-RIZ002-NYZ038-NYZ072-211400-
SOUTHERN NEW ENGLAND AND NY

CITY           SKY/WX    TMP DP  RH WIND       PRES   REMARKS
BOSTON         FAIR      64  46  52 VRB5      30.16R
WORCESTER      FAIR      61  39  44 N10       30.18R
NANTUCKET      FAIR      63  50  62 N13       30.14R
PROVIDENCE     FAIR      65  46  50 N8        30.17R
HARTFORD       FAIR      63  49  60 NW7       30.20R
ALBANY         FAIR      62  51  67 CALM      30.22R
NEW YORK CITY  FAIR      66  49  54 N10       30.19S
$$

ANZ081-ANZ082-ANZ150-NHZ014-MEZ023>029-211400-
COASTAL MARINE OBSERVATIONS

STATION/POSITION TIME  TEMP    WIND        PRES    WAVE
                       AIR SEA DIR/SP/G            HT/PER
                 (UTC) (F)     (DEG/KT/KT) (MB)    (FT/S)
MOUNT DESERT ROC 1300   49     260/ 11/ 12 1019.3R
MATINICUS ROCK   1300   51     280/ 13/ 13 1019.2R
ISLE OF SHOALS   1300   58     300/  6/  6 1020.7R
JEFFREYS LEDGE   1236      52                N/A     2/ 8
CASHES LEDGE BUO 1250   55 49              1020.3R   3/ 8
$$

.............KEY..............
   WCI - WIND CHILL
   TC  - TEMPERATURE IN CELSIUS
   VSB - VISIBILITY IN MILES
   HX  - HEAT INDEX
   FAIR- INDICATES FEW OR NO CLOUDS BELOW 12,000 FT, WITH NO
         SIGNIFICANT WEATHER AND/OR OBSTRUCTIONS TO VISIBILITY.





USA.gov is the U.S. government's official web portal to all federal, state and local government web resources and services.